• In Netherlands
  • List of Countries
  • For 7 days
  • Water Temperature
  • Satellite Maps
  • Weather Map
  • Weather Widgets
  • user-avatar
    Login

    Hourly Weather Pittsburgh

    Today, 17 October, Wednesday

    Time Temperature Precipitation Wind Pressure Humidity
    00:00 +5°C° 0 mm 3 mps 741 mmHg 71%
    01:00 +4°C° 0 mm 3 mps 741 mmHg 70%
    02:00 +4°C° 0 mm 3 mps 741 mmHg 71%
    03:00 +4°C° 0 mm 3 mps 741 mmHg 73%
    04:00 +4°C° 0 mm 3 mps 741 mmHg 74%
    05:00 +4°C° 0 mm 4 mps 741 mmHg 75%
    06:00 +3°C° 0 mm 4 mps 741 mmHg 76%
    07:00 +3°C° 0 mm 4 mps 741 mmHg 77%
    08:00 +5°C° 0 mm 5 mps 741 mmHg 71%
    09:00 +7°C° 0 mm 5 mps 741 mmHg 65%
    10:00 +9°C° 0 mm 6 mps 741 mmHg 60%
    11:00 +10°C° 0 mm 6 mps 741 mmHg 57%
    12:00 +11°C° 0 mm 6 mps 741 mmHg 54%
    13:00 +12°C° 0 mm 7 mps 741 mmHg 52%
    14:00 +11°C° 0.1 mm 6 mps 741 mmHg 56%
    15:00 +10°C° 0.1 mm 6 mps 742 mmHg 60%
    16:00 +9°C° 0.1 mm 6 mps 742 mmHg 63%
    17:00 +8°C° 0.1 mm 5 mps 743 mmHg 67%
    18:00 +7°C° 0.1 mm 5 mps 744 mmHg 70%
    19:00 +5°C° 0.1 mm 4 mps 745 mmHg 74%
    20:00 +5°C° 0 mm 4 mps 746 mmHg 74%
    21:00 +4°C° 0 mm 4 mps 746 mmHg 75%
    22:00 +3°C° 0 mm 3 mps 747 mmHg 75%
    23:00 +3°C° 0 mm 3 mps 748 mmHg 75%

    Tomorrow, 18 October, Thursday

    Time Temperature Precipitation Wind Pressure Humidity
    00:00 +2°C° 0 mm 3 mps 748 mmHg 75%
    01:00 +2°C° 0 mm 2 mps 748 mmHg 75%
    02:00 +2°C° 0 mm 2 mps 749 mmHg 77%
    03:00 +1°C° 0 mm 2 mps 749 mmHg 78%
    04:00 +1°C° 0 mm 2 mps 749 mmHg 80%
    05:00 +1°C° 0 mm 2 mps 750 mmHg 81%
    06:00 +2°C° 0 mm 1 mps 750 mmHg 81%
    07:00 +1°C° 0 mm 1 mps 751 mmHg 82%
    08:00 +2°C° 0 mm 2 mps 751 mmHg 71%
    09:00 +4°C° 0 mm 2 mps 751 mmHg 61%
    10:00 +5°C° 0 mm 3 mps 752 mmHg 51%
    11:00 +7°C° 0 mm 3 mps 751 mmHg 49%
    12:00 +8°C° 0 mm 3 mps 751 mmHg 47%
    13:00 +9°C° 0 mm 3 mps 751 mmHg 45%
    14:00 +9°C° 0 mm 3 mps 751 mmHg 47%
    15:00 +9°C° 0 mm 3 mps 750 mmHg 49%
    16:00 +9°C° 0 mm 3 mps 750 mmHg 51%
    17:00 +7°C° 0 mm 2 mps 750 mmHg 58%
    18:00 +7°C° 0 mm 1 mps 750 mmHg 65%
    19:00 +5°C° 0 mm 1 mps 750 mmHg 73%
    20:00 +5°C° 0 mm 1 mps 750 mmHg 74%
    21:00 +4°C° 0 mm 1 mps 750 mmHg 76%
    22:00 +4°C° 0 mm 1 mps 750 mmHg 78%
    23:00 +4°C° 0 mm 1 mps 750 mmHg 79%

    Day after tomorrow, 19 October, Friday

    Time Temperature Precipitation Wind Pressure Humidity
    00:00 +3°C° 0 mm 1 mps 749 mmHg 80%
    01:00 +3°C° 0 mm 1 mps 749 mmHg 81%
    02:00 +3°C° 0 mm 1 mps 749 mmHg 81%
    03:00 +3°C° 0 mm 1 mps 749 mmHg 82%
    04:00 +2°C° 0 mm 1 mps 748 mmHg 82%
    05:00 +2°C° 0 mm 1 mps 748 mmHg 82%
    06:00 +1°C° 0 mm 2 mps 748 mmHg 82%
    07:00 +1°C° 0 mm 2 mps 748 mmHg 82%
    08:00 +4°C° 0 mm 2 mps 747 mmHg 73%
    09:00 +6°C° 0 mm 2 mps 747 mmHg 63%
    10:00 +9°C° 0 mm 2 mps 747 mmHg 53%
    11:00 +10°C° 0 mm 3 mps 746 mmHg 51%
    12:00 +12°C° 0 mm 3 mps 745 mmHg 48%
    13:00 +13°C° 0 mm 3 mps 744 mmHg 46%
    14:00 +13°C° 0 mm 3 mps 743 mmHg 50%
    15:00 +13°C° 0 mm 2 mps 742 mmHg 53%
    16:00 +13°C° 0 mm 2 mps 741 mmHg 57%
    17:00 +12°C° 0 mm 2 mps 741 mmHg 61%
    18:00 +10°C° 0 mm 3 mps 741 mmHg 64%
    19:00 +9°C° 0 mm 3 mps 741 mmHg 67%
    20:00 +9°C° 0 mm 3 mps 740 mmHg 70%
    21:00 +9°C° 0 mm 3 mps 740 mmHg 73%
    22:00 +9°C° 0 mm 3 mps 739 mmHg 76%
    23:00 +9°C° 0.5 mm 3 mps 739 mmHg 81%

    20 October, Saturday

    Time Temperature Precipitation Wind Pressure Humidity
    00:00 +9°C° 0.5 mm 3 mps 738 mmHg 85%
    01:00 +8°C° 0.5 mm 4 mps 738 mmHg 90%
    02:00 +8°C° 0.1 mm 4 mps 737 mmHg 91%
    03:00 +8°C° 0.1 mm 4 mps 736 mmHg 91%
    04:00 +10°C° 0.1 mm 4 mps 735 mmHg 92%
    05:00 +10°C° 0 mm 4 mps 735 mmHg 92%
    06:00 +10°C° 0 mm 4 mps 735 mmHg 93%
    07:00 +10°C° 0 mm 4 mps 735 mmHg 93%
    08:00 +10°C° 0.1 mm 4 mps 735 mmHg 92%
    09:00 +9°C° 0.1 mm 5 mps 735 mmHg 92%
    10:00 +9°C° 0.1 mm 5 mps 735 mmHg 92%
    11:00 +10°C° 0.4 mm 5 mps 735 mmHg 89%
    12:00 +10°C° 0.4 mm 5 mps 735 mmHg 86%
    13:00 +10°C° 0.4 mm 5 mps 734 mmHg 83%
    14:00 +10°C° 0.3 mm 5 mps 734 mmHg 78%
    15:00 +10°C° 0.3 mm 5 mps 734 mmHg 73%
    16:00 +11°C° 0.3 mm 4 mps 734 mmHg 68%
    17:00 +10°C° 0.2 mm 4 mps 735 mmHg 74%
    18:00 +9°C° 0.2 mm 3 mps 736 mmHg 79%
    19:00 +7°C° 0.2 mm 2 mps 736 mmHg 85%
    20:00 +7°C° 0.2 mm 2 mps 737 mmHg 86%
    21:00 +7°C° 0.2 mm 2 mps 738 mmHg 87%
    22:00 +5°C° 0.2 mm 3 mps 738 mmHg 88%
    23:00 +5°C° 0 mm 2 mps 739 mmHg 89%

    21 October, Sunday

    Time Temperature Precipitation Wind Pressure Humidity
    00:00 +5°C° 0 mm 2 mps 739 mmHg 90%
    01:00 +4°C° 0 mm 2 mps 740 mmHg 91%
    02:00 +4°C° 0 mm 2 mps 740 mmHg 90%
    03:00 +3°C° 0 mm 3 mps 741 mmHg 89%
    04:00 +3°C° 0 mm 3 mps 742 mmHg 88%
    05:00 +3°C° 0 mm 3 mps 742 mmHg 88%
    06:00 +2°C° 0 mm 3 mps 743 mmHg 88%
    07:00 +2°C° 0 mm 3 mps 744 mmHg 89%
    08:00 +3°C° 0.1 mm 3 mps 744 mmHg 85%
    09:00 +4°C° 0.1 mm 3 mps 745 mmHg 80%
    10:00 +5°C° 0.1 mm 4 mps 746 mmHg 76%
    11:00 +6°C° 0.1 mm 4 mps 746 mmHg 71%
    12:00 +6°C° 0.1 mm 4 mps 746 mmHg 66%
    13:00 +7°C° 0.1 mm 4 mps 746 mmHg 61%
    14:00 +8°C° 0 mm 3 mps 745 mmHg 60%
    15:00 +8°C° 0 mm 3 mps 745 mmHg 59%
    16:00 +8°C° 0 mm 3 mps 745 mmHg 58%
    17:00 +6°C° 0 mm 2 mps 746 mmHg 64%
    18:00 +5°C° 0 mm 2 mps 746 mmHg 70%
    19:00 +4°C° 0 mm 1 mps 746 mmHg 76%
    20:00 +4°C° 0 mm 1 mps 746 mmHg 78%
    21:00 +3°C° 0 mm 1 mps 746 mmHg 80%
    22:00 +3°C° 0 mm 1 mps 747 mmHg 82%
    23:00 +3°C° 0 mm 1 mps 746 mmHg 82%

    22 October, Monday

    Time Temperature Precipitation Wind Pressure Humidity
    00:00 +3°C° 0 mm 1 mps 746 mmHg 83%
    01:00 +2°C° 0 mm 1 mps 746 mmHg 84%
    02:00 +1°C° 0 mm 2 mps 746 mmHg 84%
    03:00 +1°C° 0 mm 2 mps 746 mmHg 84%
    04:00 +1°C° 0 mm 2 mps 746 mmHg 85%
    05:00 +1°C° 0 mm 2 mps 746 mmHg 84%
    06:00 +1°C° 0 mm 2 mps 746 mmHg 84%
    07:00 +1°C° 0 mm 2 mps 746 mmHg 83%
    08:00 +2°C° 0 mm 3 mps 746 mmHg 74%
    09:00 +5°C° 0 mm 3 mps 746 mmHg 64%
    10:00 +7°C° 0 mm 4 mps 746 mmHg 54%
    11:00 +10°C° 0 mm 4 mps 745 mmHg 51%
    12:00 +11°C° 0 mm 4 mps 744 mmHg 48%
    13:00 +13°C° 0 mm 4 mps 744 mmHg 45%
    14:00 +13°C° 0 mm 4 mps 743 mmHg 47%
    15:00 +13°C° 0 mm 4 mps 743 mmHg 49%
    16:00 +13°C° 0 mm 3 mps 743 mmHg 51%
    17:00 +11°C° 0 mm 3 mps 743 mmHg 57%
    18:00 +10°C° 0 mm 3 mps 743 mmHg 63%
    19:00 +8°C° 0 mm 3 mps 743 mmHg 69%
    20:00 +8°C° 0 mm 3 mps 743 mmHg 70%
    21:00 +8°C° 0 mm 3 mps 743 mmHg 71%
    22:00 +7°C° 0 mm 3 mps 743 mmHg 72%
    23:00 +7°C° 0 mm 3 mps 743 mmHg 75%
    Show more